ARGENTIA (MARS), Canada

5:02 PM NST on January 16, 2017 (GMT -0330)
Argentia

Weather History for CWAR - September, 2013

Change the Weather History Date:

Tuesday, September 10, 2013

  Actual Average Record
Temperature  
Mean Temperature 60 °F -  
Max Temperature 64 °F - - ()
Min Temperature 55 °F - - ()
Degree Days  
Heating Degree Days 6    
Growing Degree Days 10 (Base 50)    
Moisture  
Dew Point 54 °F    
Average Humidity 78    
Maximum Humidity 90    
Minimum Humidity 64    
Precipitation  
Precipitation 0.00 in - - ()
Sea Level Pressure  
Sea Level Pressure 30.15 in    
Wind  
Wind Speed 20 mph ()    
Max Wind Speed 25 mph    
Max Gust Speed 32 mph    
T = Trace of Precipitation, MM = Missing Value Source: Averaged Metar Reports

Daily Weather History Graph

Daily Weather History Graph

Search for Another Location

Airport or City:

Trip Planner

Search our weather history database for the weather conditions in past years. The results will help you decide how hot, cold, wet, or windy it might be!

Date:

Astronomy

Sep. 10, 2013 Rise Set
Actual Time 6:37 AM NDT 7:27 PM NDT
Civil Twilight 6:06 AM NDT 7:58 PM NDT
Nautical Twilight 5:28 AM NDT 8:35 PM NDT
Astronomical Twilight 4:49 AM NDT 9:14 PM NDT
Moon 12:20 PM NDT (9/10) 10:01 PM NDT (9/10)
Length of Visible Light 13h 52m
Length of Day
12h 50m
Waxing Crescent, 27% of the Moon is Illuminated
Sep 10
Waxing Crescent
Sep 12
First Quarter
Sep 19
Full
Sep 27
Last Quarter
Oct 4
New

Hourly Weather History & Observations

Time (NDT) Temp. Dew Point Humidity Pressure Visibility Wind Dir Wind Speed Gust Speed Precip Events Conditions
12:30 AM 57 °F 48 °F 64% 30.08 in - WSW 24.2 mph - -  
12:30 AM 56.7 °F 48.0 °F 73% 30.08 in - WSW 24.2 mph - N/A   Unknown
1:30 AM 57.4 °F 48.7 °F 73% 30.09 in - WSW 25.3 mph - N/A   Unknown
2:30 AM 57.7 °F 49.6 °F 74% 30.10 in - WSW 24.2 mph 29.9 mph N/A   Unknown
3:30 AM 58 °F 50 °F 67% 30.11 in - WSW 24.2 mph - -  
3:30 AM 57.9 °F 50.0 °F 75% 30.11 in - WSW 24.2 mph 29.9 mph N/A   Unknown
4:30 AM 58.1 °F 49.5 °F 73% 30.12 in - WSW 25.3 mph 32.2 mph N/A   Unknown
5:30 AM 57.9 °F 50.4 °F 76% 30.13 in - WSW 21.9 mph 28.8 mph N/A   Unknown
6:30 AM 58 °F 51 °F 71% 30.14 in - SW 20.7 mph - -  
6:30 AM 58.1 °F 51.3 °F 78% 30.14 in - SW 20.7 mph 26.5 mph N/A   Unknown
7:30 AM 58.6 °F 52.2 °F 79% 30.15 in - SW 23.0 mph - N/A   Unknown
8:30 AM 59.5 °F 53.1 °F 79% 30.15 in - SW 21.9 mph 28.8 mph N/A   Unknown
9:30 AM 60 °F 54 °F 75% 30.17 in - SW 19.6 mph - -  
9:30 AM 60.3 °F 54.1 °F 80% 30.17 in - SW 19.6 mph 26.5 mph N/A   Unknown
10:30 AM 61.2 °F 54.1 °F 78% 30.18 in - SSW 20.7 mph - N/A   Unknown
11:30 AM 62.1 °F 55.0 °F 78% 30.18 in - SW 21.9 mph - N/A   Unknown
12:30 PM 62 °F 55 °F 72% 30.17 in - SSW 19.6 mph - -  
12:30 PM 62.4 °F 55.2 °F 77% 30.17 in - SSW 19.6 mph 26.5 mph N/A   Unknown
1:30 PM 63.1 °F 56.1 °F 78% 30.18 in - SW 21.9 mph - N/A   Unknown
2:30 PM 63.1 °F 56.3 °F 78% 30.17 in - SW 18.4 mph - N/A   Unknown
3:30 PM 63 °F 57 °F 74% 30.16 in - SW 18.4 mph - -  
3:30 PM 63.0 °F 56.7 °F 80% 30.16 in - SW 18.4 mph - N/A   Unknown
4:30 PM 62.2 °F 56.7 °F 82% 30.16 in - SW 18.4 mph - N/A   Unknown
5:30 PM 61.0 °F 56.1 °F 84% 30.17 in - SW 18.4 mph - N/A   Unknown
6:30 PM 60 °F 56 °F 82% 30.17 in - SW 23.0 mph - -  
6:30 PM 60.1 °F 55.9 °F 86% 30.17 in - SW 23.0 mph - N/A   Unknown
7:30 PM 59.9 °F 55.8 °F 86% 30.18 in - SW 23.0 mph 29.9 mph N/A   Unknown
8:30 PM 59.7 °F 56.1 °F 88% 30.19 in - SW 21.9 mph - N/A   Unknown
9:30 PM 59.5 °F 56.5 °F 90% 30.20 in - SW 18.4 mph - N/A   Unknown
10:30 PM 59.5 °F 56.7 °F 90% 30.20 in - SW 13.8 mph - N/A   Unknown
11:30 PM 59.5 °F 56.7 °F 90% 30.22 in - SW 16.1 mph - N/A   Unknown